This demonstration page uses our WeatherBlox Daily Observations layout. Learn more.

Left ArrowRight Arrow

40.92945, -100.16068

Hourly Observations for March 18, 2021

Temp ( °F °C ) Dew Point ( °F °C ) Humidity (%) Winds ( mph kmh ) Pressure ( in mb ) Visibility ( mi km ) Precip ( " mm )
12:15 am 00:15 Cloudy 35 1.6 31 -0.3 87 87 N 9 15 30.25 1024 10 16 N/A
12:35 am 00:35 Cloudy 35 1.8 32 -0.2 87 87 N 14 22 30.25 1024 10 16 N/A
12:55 am 00:55 Cloudy 35 1.9 32 -0.1 87 87 N 13 20 30.25 1024 10 16 N/A
1:15 am 01:15 Cloudy 36 2 32 -0.1 86 86 N 13 20 30.26 1025 10 16 N/A
1:35 am 01:35 Cloudy 35 1.9 32 -0.1 87 87 N 14 22 30.26 1025 10 16 N/A
1:55 am 01:55 Cloudy 35 1.8 32 -0.1 87 87 N 12 19 30.27 1025 10 16 N/A
2:15 am 02:15 Cloudy 35 1.7 32 undefined 89 89 N 12 19 30.28 1025 10 16 N/A
2:35 am 02:35 Cloudy 35 1.7 32 -0.1 88 88 N 10 17 30.29 1026 10 16 N/A
2:55 am 02:55 Cloudy 35 1.5 31 -0.7 85 85 N 12 19 30.29 1026 10 16 N/A
3:15 am 03:15 Cloudy 34 1.3 31 -0.8 86 86 N 12 19 30.30 1026 10 16 N/A
3:35 am 03:35 Cloudy 34 1.1 30 -0.9 87 87 N 9 15 30.31 1026 10 16 N/A
3:55 am 03:55 Cloudy 34 1 30 -1.1 86 86 N 13 20 30.31 1026 10 16 N/A
4:15 am 04:15 Cloudy 33 0.8 30 -1 88 88 N 9 15 30.31 1026 10 16 N/A
4:35 am 04:35 Cloudy 34 1 30 -1 87 87 NNE 7 11 30.32 1027 10 16 N/A
4:55 am 04:55 Cloudy 34 1 30 -1 87 87 NNE 10 17 30.33 1027 10 16 N/A
5:15 am 05:15 Cloudy 34 1 28 -2 81 81 NNE 14 22 30.33 1027 10 16 N/A
5:35 am 05:35 Cloudy 34 0.9 28 -2.1 81 81 N 14 22 30.33 1027 10 16 N/A
5:55 am 05:55 Cloudy 33 0.7 28 -2 82 82 N 9 15 30.33 1027 10 16 N/A
6:15 am 06:15 Cloudy 33 0.5 29 -1.9 84 84 N 7 11 30.34 1028 10 16 N/A
6:35 am 06:35 Cloudy 33 0.5 29 -1.7 85 85 N 8 13 30.34 1028 10 16 N/A
6:55 am 06:55 Cloudy 33 0.5 29 -1.6 86 86 N 6 9 30.34 1028 10 16 N/A
7:15 am 07:15 Cloudy 33 0.6 29 -1.8 84 84 N 12 19 30.35 1028 10 16 N/A
7:35 am 07:35 Cloudy 33 0.6 29 -1.8 84 84 N 10 17 30.35 1028 10 16 N/A
7:55 am 07:55 Cloudy 33 0.6 29 -1.7 85 85 N 9 15 30.36 1028 10 16 N/A
8:15 am 08:15 Cloudy 33 0.7 29 -1.8 84 84 N 13 20 30.36 1028 10 16 N/A
8:35 am 08:35 Cloudy 33 0.7 29 -1.6 85 85 N 12 19 30.37 1028 10 16 N/A
8:55 am 08:55 Cloudy 34 1 29 -1.6 83 83 N 15 24 30.38 1029 10 16 N/A
9:15 am 09:15 Cloudy 34 1 29 -1.7 82 82 N 16 26 30.39 1029 10 16 N/A
9:35 am 09:35 Cloudy 34 1.1 29 -1.7 82 82 N 15 24 30.40 1029 10 16 N/A
9:55 am 09:55 Cloudy 34 1.2 28 -2 79 79 N 18 30 30.41 1030 10 16 N/A
10:15 am 10:15 Cloudy 34 1.2 28 -2 79 79 N 16 26 30.42 1030 10 16 N/A
10:35 am 10:35 Cloudy 35 1.4 29 -1.9 79 79 N 17 28 30.42 1030 10 16 N/A
10:55 am 10:55 Cloudy 35 1.5 28 -2.1 77 77 N 16 26 30.42 1030 10 16 N/A
11:15 am 11:15 Cloudy 35 1.9 28 -2.5 73 73 NNE 17 28 30.43 1030 10 16 N/A
11:35 am 11:35 Cloudy 35 1.7 29 -1.8 78 78 NNE 16 26 30.43 1031 10 16 N/A
11:55 am 11:55 Cloudy 35 1.4 29 -1.8 80 80 N 17 28 30.44 1031 10 16 N/A
12:15 pm 12:15 Cloudy 35 1.7 28 -2 77 77 N 15 24 30.44 1031 10 16 N/A
12:35 pm 12:35 Cloudy 36 2 28 -2.1 75 75 N 15 24 30.44 1031 10 16 N/A
12:55 pm 12:55 Cloudy 36 2.4 28 -2.2 72 72 N 12 19 30.43 1031 10 16 N/A
1:15 pm 13:15 Cloudy 37 2.7 29 -1.8 73 73 NNE 13 20 30.43 1031 10 16 N/A
1:35 pm 13:35 Cloudy 38 3.2 29 -1.6 71 71 N 12 19 30.42 1030 10 16 N/A
1:55 pm 13:55 Mostly Cloudy 39 3.9 30 -1.2 70 70 NNE 14 22 30.41 1030 10 16 N/A
2:15 pm 14:15 Mostly Cloudy 39 3.9 29 -1.7 67 67 N 13 20 30.41 1030 10 16 N/A
2:35 pm 14:35 Mostly Cloudy 40 4.6 30 -1 67 67 NNE 10 17 30.39 1029 10 16 N/A
2:55 pm 14:55 Mostly Cloudy 41 5 30 -0.9 66 66 NNE 10 17 30.39 1029 10 16 N/A
3:15 pm 15:15 Partly Cloudy 42 5.3 30 -0.9 65 65 NE 12 19 30.38 1029 10 16 N/A
3:35 pm 15:35 Partly Cloudy 43 5.9 31 -0.3 65 65 N 9 15 30.37 1028 10 16 N/A
3:55 pm 15:55 Mostly Cloudy 42 5.8 31 -0.5 64 64 NNE 9 15 30.38 1029 10 16 N/A
4:15 pm 16:15 Partly Cloudy 43 5.9 30 -1.1 61 61 NE 10 17 30.37 1028 10 16 N/A
4:35 pm 16:35 Partly Cloudy 43 6.2 30 -1.3 59 59 NE 9 15 30.37 1028 10 16 N/A
4:55 pm 16:55 Sunny 44 6.6 31 -0.3 62 62 NNE 9 15 30.36 1028 10 16 N/A
5:15 pm 17:15 Sunny 44 6.8 31 -0.6 60 60 ENE 12 19 30.37 1028 10 16 N/A
5:35 pm 17:35 Sunny 45 7.1 32 0.1 61 61 ENE 9 15 30.36 1028 10 16 N/A
5:55 pm 17:55 Sunny 45 7 31 -0.4 60 60 ENE 9 15 30.36 1028 10 16 N/A
6:15 pm 18:15 Sunny 45 7 31 -0.6 59 59 NE 8 13 30.37 1028 10 16 N/A
6:35 pm 18:35 Sunny 45 7.2 32 undefined 61 61 NE 8 13 30.37 1028 10 16 N/A
6:55 pm 18:55 Sunny 45 7 32 -0.2 61 61 NNE 5 7 30.37 1028 10 16 N/A
7:15 pm 19:15 Sunny 44 6.9 32 -0.1 61 61 ENE 9 15 30.37 1028 10 16 N/A
7:35 pm 19:35 Sunny 43 6.1 33 0.5 68 68 NE 5 7 30.39 1029 10 16 N/A
7:55 pm 19:55 Clear 41 5.1 32 0.2 71 71 NE 7 11 30.40 1029 10 16 N/A
8:15 pm 20:15 Clear 39 4.1 32 0.1 75 75 NE 6 9 30.41 1030 10 16 N/A
8:35 pm 20:35 Clear 38 3.6 32 undefined 78 78 NE 7 11 30.41 1030 10 16 N/A
8:55 pm 20:55 Clear 37 2.6 32 -0.2 82 82 NE 5 7 30.43 1031 10 16 N/A
9:15 pm 21:15 Clear 36 2.2 31 -0.5 83 83 ENE 6 9 30.44 1031 10 16 N/A
9:35 pm 21:35 Clear 35 1.6 30 -1 83 83 NE 6 9 30.45 1031 10 16 N/A
9:55 pm 21:55 Clear 34 1.3 31 -0.8 86 86 NE 5 7 30.46 1031 10 16 N/A
10:15 pm 22:15 Clear 33 0.8 29 -1.4 85 85 NE 6 9 30.46 1031 10 16 N/A
10:35 pm 22:35 Clear 33 0.5 29 -1.4 87 87 NE 6 9 30.46 1032 10 16 N/A
10:55 pm 22:55 Clear 33 0.6 30 -1.2 88 88 NE 5 7 30.47 1032 10 16 N/A
11:15 pm 23:15 Clear 32 0.1 30 -1.2 91 91 ENE 3 6 30.48 1032 10 16 N/A
11:35 pm 23:35 Clear 32 0.2 29 -1.4 89 89 ENE 6 9 30.49 1032 10 16 N/A
11:55 pm 23:55 Clear 32 undefined 30 -1.3 91 91 N N/A 30.49 1032 10 16 N/A

Powered by AerisWeather